Tracking 28790 objects as of 18-Apr-2024
HD Live streaming from Space Station
objects crossing your sky now

LAGEOS 1

Track LAGEOS 1 now!
10-day predictions
LAGEOS 1 is classified as:


NORAD ID: 8820
Int'l Code: 1976-039A
Perigee: 5,845.8 km
Apogee: 5,954.6 km
Inclination: 109.8 °
Period: 225.5 minutes
Semi major axis: 12271 km
RCS: 0.3981 m2 (medium)
Launch date: May 4, 1976
Source: United States (US)
Launch site: AIR FORCE WESTERN TEST RANGE (AFWTR)
Your satellite tracking list
Your tracking list is empty




NASA's NSSDC Master Catalog

Two Line Element Set (TLE):
1 08820U 76039A   24109.14887043  .00000024  00000-0  00000-0 0  9990
2 08820 109.8447 268.7016 0044338 111.8008  63.8659  6.38664882862682
Source of the keplerian elements: AFSPC